DH7HU-3 Weather Reports


time (UTC)temp
F
wind
direction
speed
knots
gust
knots
rain 1hr
in
rain 24hr
in
rain mn
in
humidity
%
barometer
mb
20260507171906 47 0.0 0.0 0.00 0.00 0.00 43 1008.5
20260507171604 47 0.0 0.0 0.00 0.00 0.00 43 1008.5
20260507171257 47 0.0 0.0 0.00 0.00 0.00 43 1008.4
20260507170652 46 0.0 0.0 0.00 0.00 0.00 44 1008.5
20260507170351 46 0.0 0.0 0.00 0.00 0.00 44 1008.5
20260507170049 46 0.0 0.0 0.00 0.00 0.00 44 1008.5
20260507165445 45 0.0 0.0 0.00 0.00 0.00 44 1008.4
20260507164539 46 0.0 0.0 0.00 0.00 0.00 43 1008.4
20260507164238 45 0.0 0.0 0.00 0.00 0.00 44 1008.4
20260507163937 45 0.0 0.0 0.00 0.00 0.00 44 1008.3
20260507162727 45 0.0 0.0 0.00 0.00 0.00 44 1008.4
20260507162425 45 0.0 0.0 0.00 0.00 0.00 45 1008.3
20260507162123 45 0.0 0.0 0.00 0.00 0.00 44 1008.3
20260507161822 45 0.0 0.0 0.00 0.00 0.00 45 1008.2
20260507161520 45 0.0 0.0 0.00 0.00 0.00 44 1008.2
20260507161217 47 0.0 0.0 0.00 0.00 0.00 42 1008.3
20260507160915 47 0.0 0.0 0.00 0.00 0.00 42 1008.2
20260507160613 47 0.0 0.0 0.00 0.00 0.00 42 1008.2
20260507160310 47 0.0 0.0 0.00 0.00 0.00 42 1008.3
20260507160009 46 0.0 0.0 0.00 0.00 0.00 43 1008.2
20260507154446 46 0.0 0.0 0.00 0.00 0.00 43 1008.2
20260507153541 46 0.0 0.0 0.00 0.00 0.00 42 1008.1
20260507153240 48 0.0 0.0 0.00 0.00 0.00 41 1008.1
20260507152937 48 0.0 0.0 0.00 0.00 0.00 41 1008.1
20260507152329 48 0.0 0.0 0.00 0.00 0.00 41 1008.0
20260507151724 47 0.0 0.0 0.00 0.00 0.00 42 1008.0
20260507151421 46 0.0 0.0 0.00 0.00 0.00 42 1008.0
20260507151120 46 0.0 0.0 0.00 0.00 0.00 43 1008.0
20260507150819 47 0.0 0.0 0.00 0.00 0.00 42 1008.0
20260507150517 47 0.0 0.0 0.00 0.00 0.00 42 1008.0
20260507145000 47 0.0 0.0 0.00 0.00 0.00 42 1007.8
20260507144657 47 0.0 0.0 0.00 0.00 0.00 42 1007.8
20260507143750 46 0.0 0.0 0.00 0.00 0.00 43 1007.8
20260507142241 47 0.0 0.0 0.00 0.00 0.00 42 1007.7
20260507141940 47 0.0 0.0 0.00 0.00 0.00 42 1007.6
20260507141634 48 0.0 0.0 0.00 0.00 0.00 41 1007.7
20260507141333 48 0.0 0.0 0.00 0.00 0.00 40 1007.7
20260507141031 49 0.0 0.0 0.00 0.00 0.00 40 1007.6
20260507140729 48 0.0 0.0 0.00 0.00 0.00 41 1007.6
20260507140427 48 0.0 0.0 0.00 0.00 0.00 41 1007.6
20260507140125 48 0.0 0.0 0.00 0.00 0.00 41 1007.6
20260507135823 47 0.0 0.0 0.00 0.00 0.00 42 1007.5
20260507135521 46 0.0 0.0 0.00 0.00 0.00 43 1007.5
20260507135219 46 0.0 0.0 0.00 0.00 0.00 43 1007.6
20260507134008 45 0.0 0.0 0.00 0.00 0.00 44 1007.5
20260507133355 44 0.0 0.0 0.00 0.00 0.00 45 1007.5
20260507133050 44 0.0 0.0 0.00 0.00 0.00 46 1007.5
20260507131538 45 0.0 0.0 0.00 0.00 0.00 43 1007.5
20260507130626 45 0.0 0.0 0.00 0.00 0.00 44 1007.4
20260507125719 43 0.0 0.0 0.00 0.00 0.00 46 1007.3
20260507125416 43 0.0 0.0 0.00 0.00 0.00 46 1007.3
20260507124813 44 0.0 0.0 0.00 0.00 0.00 44 1007.4
20260507124208 45 0.0 0.0 0.00 0.00 0.00 44 1007.3
20260507123907 45 0.0 0.0 0.00 0.00 0.00 44 1007.3
20260507123600 45 0.0 0.0 0.00 0.00 0.00 44 1007.3
20260507123257 44 0.0 0.0 0.00 0.00 0.00 44 1007.3
20260507122955 45 0.0 0.0 0.00 0.00 0.00 43 1007.2
20260507122654 45 0.0 0.0 0.00 0.00 0.00 43 1007.2
20260507121748 45 0.0 0.0 0.00 0.00 0.00 44 1007.2
20260507121445 44 0.0 0.0 0.00 0.00 0.00 44 1007.2
20260507120540 44 0.0 0.0 0.00 0.00 0.00 45 1007.2
20260507120238 44 0.0 0.0 0.00 0.00 0.00 44 1007.2
20260507115936 45 0.0 0.0 0.00 0.00 0.00 45 1007.1
20260507115631 45 0.0 0.0 0.00 0.00 0.00 44 1007.1
20260507115330 44 0.0 0.0 0.00 0.00 0.00 45 1007.1
20260507115028 43 0.0 0.0 0.00 0.00 0.00 46 1007.1
20260507114725 43 0.0 0.0 0.00 0.00 0.00 46 1007.1
20260507114122 43 0.0 0.0 0.00 0.00 0.00 48 1007.0
20260507113819 41 0.0 0.0 0.00 0.00 0.00 49 1007.0
20260507113213 40 0.0 0.0 0.00 0.00 0.00 50 1007.0
20260507112306 43 0.0 0.0 0.00 0.00 0.00 47 1007.0
20260507111658 42 0.0 0.0 0.00 0.00 0.00 48 1006.9
20260507111054 40 0.0 0.0 0.00 0.00 0.00 50 1006.9
20260507110751 41 0.0 0.0 0.00 0.00 0.00 49 1006.9
20260507110143 40 0.0 0.0 0.00 0.00 0.00 50 1006.9
20260507105536 40 0.0 0.0 0.00 0.00 0.00 50 1006.9
20260507105234 39 0.0 0.0 0.00 0.00 0.00 51 1006.9
20260507104326 41 0.0 0.0 0.00 0.00 0.00 49 1006.8
20260507103722 41 0.0 0.0 0.00 0.00 0.00 48 1006.7
20260507103420 42 0.0 0.0 0.00 0.00 0.00 46 1006.8
20260507103117 44 0.0 0.0 0.00 0.00 0.00 45 1006.8
20260507102814 44 0.0 0.0 0.00 0.00 0.00 44 1006.6
20260507102512 45 0.0 0.0 0.00 0.00 0.00 44 1006.7
20260507102210 44 0.0 0.0 0.00 0.00 0.00 45 1006.7
20260507101908 43 0.0 0.0 0.00 0.00 0.00 46 1006.7
20260507101604 45 0.0 0.0 0.00 0.00 0.00 44 1006.5
20260507101301 45 0.0 0.0 0.00 0.00 0.00 44 1006.5
20260507100652 46 0.0 0.0 0.00 0.00 0.00 43 1006.5
20260507100349 46 0.0 0.0 0.00 0.00 0.00 43 1006.5
20260507095745 47 0.0 0.0 0.00 0.00 0.00 42 1006.4
20260507095439 47 0.0 0.0 0.00 0.00 0.00 42 1006.4
20260507094836 47 0.0 0.0 0.00 0.00 0.00 43 1006.3
20260507094533 47 0.0 0.0 0.00 0.00 0.00 43 1006.3
20260507094231 47 0.0 0.0 0.00 0.00 0.00 43 1006.2
20260507093928 47 0.0 0.0 0.00 0.00 0.00 43 1006.2
20260507093623 46 0.0 0.0 0.00 0.00 0.00 44 1006.1
20260507093321 46 0.0 0.0 0.00 0.00 0.00 45 1006.1
20260507093013 45 0.0 0.0 0.00 0.00 0.00 46 1006.0
20260507092710 43 0.0 0.0 0.00 0.00 0.00 48 1006.0
20260507092408 42 0.0 0.0 0.00 0.00 0.00 49 1006.0
20260507092105 41 0.0 0.0 0.00 0.00 0.00 49 1005.8
20260507091804 41 0.0 0.0 0.00 0.00 0.00 49 1005.9
20260507091501 41 0.0 0.0 0.00 0.00 0.00 49 1005.8
20260507091159 41 0.0 0.0 0.00 0.00 0.00 48 1005.8
20260507090553 42 0.0 0.0 0.00 0.00 0.00 47 1005.7
20260507085646 42 0.0 0.0 0.00 0.00 0.00 48 1005.7
20260507085345 41 0.0 0.0 0.00 0.00 0.00 50 1005.6
20260507085044 40 0.0 0.0 0.00 0.00 0.00 52 1005.6
20260507084742 40 0.0 0.0 0.00 0.00 0.00 51 1005.6
20260507084440 41 0.0 0.0 0.00 0.00 0.00 49 1005.6
20260507083834 41 0.0 0.0 0.00 0.00 0.00 50 1005.5
20260507083229 41 0.0 0.0 0.00 0.00 0.00 50 1005.4
20260507082625 39 0.0 0.0 0.00 0.00 0.00 52 1005.3
20260507082324 39 0.0 0.0 0.00 0.00 0.00 53 1005.3
20260507081720 40 0.0 0.0 0.00 0.00 0.00 50 1005.2
20260507081418 40 0.0 0.0 0.00 0.00 0.00 50 1005.1
20260507081116 42 0.0 0.0 0.00 0.00 0.00 48 1005.2
20260507080513 40 0.0 0.0 0.00 0.00 0.00 50 1005.2
20260507075604 40 0.0 0.0 0.00 0.00 0.00 50 1005.0
20260507075000 41 0.0 0.0 0.00 0.00 0.00 50 1005.0
20260507074053 39 0.0 0.0 0.00 0.00 0.00 52 1004.8
20260507073144 41 0.0 0.0 0.00 0.00 0.00 50 1004.9
20260507072541 39 0.0 0.0 0.00 0.00 0.00 53 1004.7
20260507072239 38 0.0 0.0 0.00 0.00 0.00 54 1004.6
20260507071937 37 0.0 0.0 0.00 0.00 0.00 55 1004.6
20260507071331 37 0.0 0.0 0.00 0.00 0.00 55 1004.7
20260507071029 38 0.0 0.0 0.00 0.00 0.00 54 1004.6
20260507070425 37 0.0 0.0 0.00 0.00 0.00 54 1004.6
20260507070123 39 0.0 0.0 0.00 0.00 0.00 52 1004.6
20260507065820 39 0.0 0.0 0.00 0.00 0.00 52 1004.6
20260507065518 39 0.0 0.0 0.00 0.00 0.00 53 1004.6
20260507065216 39 0.0 0.0 0.00 0.00 0.00 52 1004.5
20260507064613 38 0.0 0.0 0.00 0.00 0.00 54 1004.6
20260507064310 39 0.0 0.0 0.00 0.00 0.00 52 1004.5
20260507064008 39 0.0 0.0 0.00 0.00 0.00 52 1004.5
20260507063705 39 0.0 0.0 0.00 0.00 0.00 53 1004.5
20260507063404 39 0.0 0.0 0.00 0.00 0.00 53 1004.5
20260507063102 40 0.0 0.0 0.00 0.00 0.00 51 1004.4
20260507062154 42 0.0 0.0 0.00 0.00 0.00 48 1004.3
20260507061550 44 0.0 0.0 0.00 0.00 0.00 45 1004.2
20260507061248 44 0.0 0.0 0.00 0.00 0.00 46 1004.2
20260507060946 43 0.0 0.0 0.00 0.00 0.00 47 1004.1
20260507060341 43 0.0 0.0 0.00 0.00 0.00 47 1004.0
20260507055736 44 0.0 0.0 0.00 0.00 0.00 45 1004.0
20260507055434 43 0.0 0.0 0.00 0.00 0.00 46 1004.0
20260507055131 44 0.0 0.0 0.00 0.00 0.00 45 1004.0
20260507054828 44 0.0 0.0 0.00 0.00 0.00 46 1004.0
20260507054218 44 0.0 0.0 0.00 0.00 0.00 46 1003.9
20260507053612 43 0.0 0.0 0.00 0.00 0.00 47 1003.9
20260507053007 42 0.0 0.0 0.00 0.00 0.00 48 1003.7
20260507052705 42 0.0 0.0 0.00 0.00 0.00 48 1003.7
20260507051745 43 0.0 0.0 0.00 0.00 0.00 46 1003.7
20260507051442 44 0.0 0.0 0.00 0.00 0.00 45 1003.7
20260507051140 43 0.0 0.0 0.00 0.00 0.00 46 1003.6
20260507050837 43 0.0 0.0 0.00 0.00 0.00 47 1003.6
20260507050535 43 0.0 0.0 0.00 0.00 0.00 47 1003.6
20260507050232 43 0.0 0.0 0.00 0.00 0.00 47 1003.6
20260507045623 43 0.0 0.0 0.00 0.00 0.00 47 1003.5
20260507044718 44 0.0 0.0 0.00 0.00 0.00 46 1003.4
20260507044417 44 0.0 0.0 0.00 0.00 0.00 45 1003.4
20260507043813 44 0.0 0.0 0.00 0.00 0.00 45 1003.3
20260507043510 44 0.0 0.0 0.00 0.00 0.00 45 1003.3
20260507042906 44 0.0 0.0 0.00 0.00 0.00 46 1003.2
20260507042559 43 0.0 0.0 0.00 0.00 0.00 47 1003.2
20260507041652 41 0.0 0.0 0.00 0.00 0.00 49 1003.2
20260507041047 41 0.0 0.0 0.00 0.00 0.00 50 1003.1
20260507040745 40 0.0 0.0 0.00 0.00 0.00 50 1003.1
20260507040444 41 0.0 0.0 0.00 0.00 0.00 50 1002.9
20260507040142 41 0.0 0.0 0.00 0.00 0.00 51 1002.9
20260507035538 38 0.0 0.0 0.00 0.00 0.00 55 1002.9
20260507035236 39 0.0 0.0 0.00 0.00 0.00 53 1002.8
20260507034933 38 0.0 0.0 0.00 0.00 0.00 54 1002.8
20260507034328 40 0.0 0.0 0.00 0.00 0.00 52 1002.7
20260507034027 39 0.0 0.0 0.00 0.00 0.00 54 1002.7
20260507033724 37 0.0 0.0 0.00 0.00 0.00 56 1002.7
20260507033422 37 0.0 0.0 0.00 0.00 0.00 57 1002.7
20260507033121 38 0.0 0.0 0.00 0.00 0.00 54 1002.7
20260507032818 37 0.0 0.0 0.00 0.00 0.00 56 1002.6
20260507032211 37 0.0 0.0 0.00 0.00 0.00 55 1002.7
20260507031909 39 0.0 0.0 0.00 0.00 0.00 52 1002.6
20260507031606 40 0.0 0.0 0.00 0.00 0.00 51 1002.6
20260507031304 40 0.0 0.0 0.00 0.00 0.00 51 1002.7
20260507031003 40 0.0 0.0 0.00 0.00 0.00 51 1002.7
20260507030702 40 0.0 0.0 0.00 0.00 0.00 51 1002.7
20260507030058 41 0.0 0.0 0.00 0.00 0.00 50 1002.5
20260507025756 41 0.0 0.0 0.00 0.00 0.00 51 1002.6
20260507025152 40 0.0 0.0 0.00 0.00 0.00 51 1002.6
20260507024850 41 0.0 0.0 0.00 0.00 0.00 50 1002.6
20260507024549 42 0.0 0.0 0.00 0.00 0.00 48 1002.6
20260507024246 42 0.0 0.0 0.00 0.00 0.00 49 1002.6
20260507023643 41 0.0 0.0 0.00 0.00 0.00 50 1002.6
20260507023342 42 0.0 0.0 0.00 0.00 0.00 49 1002.6
20260507023039 42 0.0 0.0 0.00 0.00 0.00 49 1002.6
20260507022738 42 0.0 0.0 0.00 0.00 0.00 49 1002.6
20260507022134 40 0.0 0.0 0.00 0.00 0.00 52 1002.5
20260507021833 39 0.0 0.0 0.00 0.00 0.00 53 1002.5
20260507021530 40 0.0 0.0 0.00 0.00 0.00 51 1002.5
20260507021228 41 0.0 0.0 0.00 0.00 0.00 50 1002.4
20260507020925 41 0.0 0.0 0.00 0.00 0.00 50 1002.4
20260507020616 41 0.0 0.0 0.00 0.00 0.00 49 1002.3
20260507020314 41 0.0 0.0 0.00 0.00 0.00 49 1002.3
20260507020011 42 0.0 0.0 0.00 0.00 0.00 48 1002.3
20260507015710 43 0.0 0.0 0.00 0.00 0.00 46 1002.4
20260507015407 43 0.0 0.0 0.00 0.00 0.00 47 1002.4
20260507015059 42 0.0 0.0 0.00 0.00 0.00 48 1002.3
20260507014757 41 0.0 0.0 0.00 0.00 0.00 50 1002.3
20260507014455 40 0.0 0.0 0.00 0.00 0.00 51 1002.3
20260507013542 42 0.0 0.0 0.00 0.00 0.00 49 1002.4
20260507013239 41 0.0 0.0 0.00 0.00 0.00 50 1002.3
20260507012937 41 0.0 0.0 0.00 0.00 0.00 50 1002.3
20260507012333 41 0.0 0.0 0.00 0.00 0.00 52 1002.2
20260507012031 38 0.0 0.0 0.00 0.00 0.00 53 1002.2
20260507011729 40 0.0 0.0 0.00 0.00 0.00 51 1002.2
20260507011427 38 0.0 0.0 0.00 0.00 0.00 53 1002.2
20260507011126 39 0.0 0.0 0.00 0.00 0.00 54 1002.2
20260507010824 37 0.0 0.0 0.00 0.00 0.00 55 1002.2
20260507010521 38 0.0 0.0 0.00 0.00 0.00 55 1002.2
20260507010218 38 0.0 0.0 0.00 0.00 0.00 54 1002.1
20260507005615 40 0.0 0.0 0.00 0.00 0.00 50 1002.1
20260507005010 39 0.0 0.0 0.00 0.00 0.00 53 1002.0
20260507004708 38 0.0 0.0 0.00 0.00 0.00 55 1001.9
20260507004405 37 0.0 0.0 0.00 0.00 0.00 55 1001.9
20260507003759 40 0.0 0.0 0.00 0.00 0.00 51 1001.7
20260507003457 41 0.0 0.0 0.00 0.00 0.00 48 1001.7
20260507003155 42 0.0 0.0 0.00 0.00 0.00 48 1001.6
20260507002551 44 0.0 0.0 0.00 0.00 0.00 45 1001.5
20260507002248 44 0.0 0.0 0.00 0.00 0.00 45 1001.6
20260507001644 44 0.0 0.0 0.00 0.00 0.00 45 1001.6
20260507001342 44 0.0 0.0 0.00 0.00 0.00 46 1001.8
20260507001040 44 0.0 0.0 0.00 0.00 0.00 46 1001.8
20260507000436 42 0.0 0.0 0.00 0.00 0.00 48 1001.8
20260507000134 44 0.0 0.0 0.00 0.00 0.00 47 1001.7
20260506235832 43 0.0 0.0 0.00 0.00 0.00 47 1001.7
20260506235529 43 0.0 0.0 0.00 0.00 0.00 48 1001.7
20260506235227 42 0.0 0.0 0.00 0.00 0.00 47 1001.7
20260506234925 43 0.0 0.0 0.00 0.00 0.00 47 1001.6
20260506234322 42 0.0 0.0 0.00 0.00 0.00 49 1001.6
20260506233113 43 0.0 0.0 0.00 0.00 0.00 47 1001.7
20260506232810 44 0.0 0.0 0.00 0.00 0.00 46 1001.7
20260506232508 45 0.0 0.0 0.00 0.00 0.00 45 1001.7
20260506232205 45 0.0 0.0 0.00 0.00 0.00 45 1001.7
20260506231902 46 0.0 0.0 0.00 0.00 0.00 45 1001.7
20260506231600 45 0.0 0.0 0.00 0.00 0.00 45 1001.8
20260506231258 46 0.0 0.0 0.00 0.00 0.00 44 1001.7
20260506230655 49 0.0 0.0 0.00 0.00 0.00 42 1001.7
20260506230352 49 0.0 0.0 0.00 0.00 0.00 42 1001.7
20260506230050 49 0.0 0.0 0.00 0.00 0.00 42 1001.7
20260506225748 48 0.0 0.0 0.00 0.00 0.00 43 1001.7
20260506225446 49 0.0 0.0 0.00 0.00 0.00 43 1001.6
20260506225143 48 0.0 0.0 0.00 0.00 0.00 43 1001.5
20260506224539 49 0.0 0.0 0.00 0.00 0.00 43 1001.4
20260506223934 49 0.0 0.0 0.00 0.00 0.00 44 1001.3
20260506223630 49 0.0 0.0 0.00 0.00 0.00 45 1001.3
20260506223328 48 0.0 0.0 0.00 0.00 0.00 45 1001.2
20260506222724 48 0.0 0.0 0.00 0.00 0.00 46 1001.1
20260506222119 46 0.0 0.0 0.00 0.00 0.00 48 1001.1
20260506221816 45 0.0 0.0 0.00 0.00 0.00 49 1001.0
20260506221515 45 0.0 0.0 0.00 0.00 0.00 50 1000.9
20260506221213 44 0.0 0.0 0.00 0.00 0.00 50 1000.9
20260506220608 46 0.0 0.0 0.00 0.00 0.00 47 1000.9
20260506220306 47 0.0 0.0 0.00 0.00 0.00 47 1000.8
20260506220003 47 0.0 0.0 0.00 0.00 0.00 46 1000.8
20260506215653 48 0.0 0.0 0.00 0.00 0.00 46 1000.8
20260506215051 50 0.0 0.0 0.00 0.00 0.00 44 1000.9
20260506214748 50 0.0 0.0 0.00 0.00 0.00 44 1000.9
20260506214445 50 0.0 0.0 0.00 0.00 0.00 44 1000.9
20260506213538 49 0.0 0.0 0.00 0.00 0.00 44 1000.9
20260506213236 50 0.0 0.0 0.00 0.00 0.00 44 1000.8
20260506212934 50 0.0 0.0 0.00 0.00 0.00 44 1000.8
20260506212330 50 0.0 0.0 0.00 0.00 0.00 45 1000.8
20260506212028 50 0.0 0.0 0.00 0.00 0.00 45 1000.7
20260506211726 50 0.0 0.0 0.00 0.00 0.00 44 1000.7
20260506211425 50 0.0 0.0 0.00 0.00 0.00 45 1000.7
20260506211122 50 0.0 0.0 0.00 0.00 0.00 45 1000.7
20260506210821 50 0.0 0.0 0.00 0.00 0.00 46 1000.8
20260506210520 49 0.0 0.0 0.00 0.00 0.00 46 1000.7
20260506205613 48 0.0 0.0 0.00 0.00 0.00 46 1000.7
20260506205008 49 0.0 0.0 0.00 0.00 0.00 46 1000.5
20260506204705 49 0.0 0.0 0.00 0.00 0.00 46 1000.5
20260506204404 49 0.0 0.0 0.00 0.00 0.00 46 1000.5
20260506204101 49 0.0 0.0 0.00 0.00 0.00 45 1000.6
20260506203759 50 0.0 0.0 0.00 0.00 0.00 45 1000.5
20260506203456 50 0.0 0.0 0.00 0.00 0.00 45 1000.5
20260506203154 50 0.0 0.0 0.00 0.00 0.00 45 1000.5
20260506202852 50 0.0 0.0 0.00 0.00 0.00 45 1000.5
20260506202548 50 0.0 0.0 0.00 0.00 0.00 45 1000.5
20260506202247 51 0.0 0.0 0.00 0.00 0.00 45 1000.5
20260506201642 50 0.0 0.0 0.00 0.00 0.00 46 1000.5
20260506201341 50 0.0 0.0 0.00 0.00 0.00 46 1000.5
20260506201039 50 0.0 0.0 0.00 0.00 0.00 46 1000.5
20260506200737 50 0.0 0.0 0.00 0.00 0.00 47 1000.5
20260506200434 49 0.0 0.0 0.00 0.00 0.00 47 1000.4
20260506195830 48 0.0 0.0 0.00 0.00 0.00 48 1000.4
20260506195528 48 0.0 0.0 0.00 0.00 0.00 49 1000.4
20260506195226 50 0.0 0.0 0.00 0.00 0.00 46 1000.4
20260506194617 51 0.0 0.0 0.00 0.00 0.00 45 1000.4
20260506194314 51 0.0 0.0 0.00 0.00 0.00 46 1000.4
20260506194012 51 0.0 0.0 0.00 0.00 0.00 45 1000.3
20260506193106 51 0.0 0.0 0.00 0.00 0.00 45 1000.1
20260506192803 51 0.0 0.0 0.00 0.00 0.00 45 1000.1
20260506192502 51 0.0 0.0 0.00 0.00 0.00 45 1000.1
20260506192200 51 0.0 0.0 0.00 0.00 0.00 45 1000.2
20260506191858 51 0.0 0.0 0.00 0.00 0.00 45 1000.2
20260506191555 51 0.0 0.0 0.00 0.00 0.00 45 1000.2
20260506191252 51 0.0 0.0 0.00 0.00 0.00 45 1000.2
20260506190950 51 0.0 0.0 0.00 0.00 0.00 45 1000.1
20260506190044 51 0.0 0.0 0.00 0.00 0.00 45 999.9
20260506185741 51 0.0 0.0 0.00 0.00 0.00 46 999.9
20260506185137 51 0.0 0.0 0.00 0.00 0.00 46 999.9
20260506184230 52 0.0 0.0 0.00 0.00 0.00 45 999.8
20260506183928 52 0.0 0.0 0.00 0.00 0.00 44 999.9
20260506182719 52 0.0 0.0 0.00 0.00 0.00 44 999.7
20260506182114 53 0.0 0.0 0.00 0.00 0.00 44 999.7
20260506181812 52 0.0 0.0 0.00 0.00 0.00 44 999.6
20260506181510 52 0.0 0.0 0.00 0.00 0.00 44 999.6
20260506181208 52 0.0 0.0 0.00 0.00 0.00 44 999.6
20260506180558 53 0.0 0.0 0.00 0.00 0.00 44 999.5
20260506180256 52 0.0 0.0 0.00 0.00 0.00 45 999.5
20260506175954 52 0.0 0.0 0.00 0.00 0.00 45 999.4
20260506175653 53 0.0 0.0 0.00 0.00 0.00 45 999.4
20260506175048 52 0.0 0.0 0.00 0.00 0.00 45 999.3
20260506174745 52 0.0 0.0 0.00 0.00 0.00 45 999.3
20260506174444 52 0.0 0.0 0.00 0.00 0.00 46 999.2
20260506174141 52 0.0 0.0 0.00 0.00 0.00 46 999.2
20260506173538 52 0.0 0.0 0.00 0.00 0.00 45 999.2
20260506173237 52 0.0 0.0 0.00 0.00 0.00 46 999.2
20260506172934 52 0.0 0.0 0.00 0.00 0.00 46 999.3
20260506172329 52 0.0 0.0 0.00 0.00 0.00 46 999.3